Theta_e
314 313 315 317 319 322 322 322 321 319 322 320 316 321 318 316 320 317 317 318 316 318 318 318 318 318 319 319 320 322 321 324 325 324 322 322 325 323 324 327 327 329 333 337 338 338 338 338 338 338 338 334 331 329 329 329 330 330 328 326 324 325 326 329 332 332 332 332 332 333 334 333 333 333 332 331 331 333 333 331 330 330 330 329 328 326 323 320 316 313 310 307 306 307 310 314 317
315 314 318 321 321 324 322 322 327 325 325 318 314 319 318 318 319 317 319 318 318 319 320 320 319 320 319 320 320 322 323 325 324 323 322 322 323 321 323 325 325 328 331 335 338 338 339 339 338 338 338 336 333 330 330 330 330 330 328 325 321 320 323 326 330 332 331 330 330 331 332 333 332 333 334 332 330 332 333 333 332 332 331 330 327 325 323 322 318 315 312 306 305 305 306 308 311
317 317 319 323 324 323 325 322 324 326 325 320 317 320 318 317 319 320 319 316 319 319 318 319 318 319 319 321 321 321 324 324 325 323 321 322 322 319 321 323 324 328 330 334 337 337 338 338 339 338 337 337 334 331 330 330 330 329 327 326 321 318 319 321 326 329 329 329 329 330 331 331 332 331 332 332 330 330 332 332 332 332 331 329 325 324 324 322 319 317 313 307 305 305 305 306 306
319 321 321 323 323 322 334 332 326 327 322 320 319 321 321 321 321 318 316 315 318 319 317 318 318 319 319 321 320 320 323 323 323 323 321 321 321 318 321 323 324 328 330 334 336 335 336 336 338 338 337 337 335 333 331 330 329 328 327 327 323 318 316 317 321 325 325 325 326 327 328 329 330 330 330 330 330 330 330 331 331 330 329 327 325 326 325 323 320 317 314 310 305 305 305 306 306
320 322 321 322 323 323 332 328 327 330 321 320 320 320 326 326 321 315 314 315 316 318 317 318 319 318 319 320 319 320 322 322 322 322 320 320 319 318 322 324 326 330 331 332 334 334 334 335 336 338 337 337 337 335 333 331 329 328 327 326 325 319 315 316 318 320 321 322 323 323 324 324 326 328 328 329 330 330 330 330 328 327 327 327 328 327 325 322 319 317 315 312 307 305 305 305 306
320 321 321 320 321 319 323 321 322 327 320 322 320 320 325 320 317 314 313 315 315 317 317 317 319 318 320 319 319 321 321 320 320 319 318 318 317 318 322 325 328 332 332 332 333 334 334 334 335 337 338 337 337 336 334 332 329 327 327 326 325 321 315 316 317 319 320 321 322 322 322 322 323 325 327 329 329 330 330 330 328 327 328 329 329 327 324 322 318 315 315 313 308 305 305 305 305
320 321 321 322 321 318 325 325 320 323 317 316 320 320 318 314 314 314 313 315 316 316 317 318 317 318 320 319 319 320 320 319 318 317 317 317 317 319 323 326 328 331 333 332 332 334 335 334 334 336 337 337 336 335 334 332 330 328 327 326 325 322 317 317 318 319 320 321 321 322 322 322 323 325 327 329 330 331 331 331 329 329 330 330 330 327 324 322 318 314 314 314 310 306 304 305 305
321 320 320 327 328 325 330 324 319 323 315 310 315 317 314 314 313 313 314 314 315 315 317 318 316 318 318 317 318 318 319 319 318 317 317 318 317 319 323 326 328 330 332 332 332 334 335 334 334 335 336 337 337 335 334 332 330 330 328 326 325 323 318 317 318 319 320 321 322 323 323 324 325 327 328 329 330 330 331 331 331 331 330 331 330 326 323 322 319 314 313 314 311 307 304 305 306
320 320 320 327 330 329 330 320 317 319 316 313 312 314 314 314 313 312 314 313 314 315 316 317 315 318 317 317 317 317 318 318 318 317 317 318 318 318 321 326 328 329 331 331 331 333 334 333 333 334 335 336 337 336 335 334 331 330 329 326 326 324 319 317 318 319 321 323 325 325 324 326 327 328 329 330 330 329 331 332 331 331 331 331 328 324 323 323 321 315 313 314 311 307 305 304 305
319 319 317 325 329 324 322 319 321 319 316 316 312 314 314 313 313 313 314 313 314 315 315 316 315 317 318 318 316 315 316 317 317 317 318 318 318 317 320 326 329 329 329 329 330 332 333 333 333 333 334 335 336 336 336 335 334 331 330 327 326 325 321 317 318 320 323 325 326 327 327 328 328 329 329 330 330 329 330 331 331 331 331 331 327 323 324 323 320 316 313 313 310 307 305 304 305
319 316 317 332 333 322 321 320 322 320 317 316 313 314 314 314 314 313 314 314 314 315 315 315 317 317 317 316 315 314 314 317 317 317 318 318 319 318 321 327 328 328 328 330 330 331 333 331 332 333 333 334 334 336 336 336 335 333 331 328 326 325 323 319 318 321 324 326 326 327 328 328 328 329 330 329 329 329 330 330 330 330 329 327 324 324 324 322 319 314 313 312 308 306 304 303 304
317 318 329 338 330 325 326 322 319 321 319 317 315 315 314 314 314 314 314 314 314 315 315 315 317 317 315 315 315 314 312 315 316 317 318 317 320 319 324 327 329 331 328 331 332 331 333 332 331 332 333 333 334 337 336 335 335 334 332 329 327 325 324 322 319 320 322 324 326 326 327 328 328 329 330 329 327 328 328 328 328 327 326 325 324 325 324 321 317 313 312 311 308 306 304 303 303
316 321 339 330 319 327 326 321 321 321 319 317 315 314 315 314 315 315 314 314 314 315 315 314 316 317 316 315 314 313 312 314 314 316 317 317 319 320 326 328 332 335 329 331 335 332 330 331 331 331 333 333 334 336 335 335 334 334 333 331 329 326 325 325 323 321 321 323 326 326 326 327 328 328 330 329 327 328 327 326 326 326 325 325 326 325 323 321 317 314 311 310 309 307 305 303 303
315 319 338 325 314 323 321 320 320 319 320 319 315 314 315 315 315 315 315 315 314 314 315 314 316 317 316 315 314 313 312 313 312 314 316 316 318 321 327 330 333 333 331 337 341 338 335 333 330 330 333 333 333 336 335 335 335 334 334 332 330 327 325 325 325 324 322 322 324 326 326 327 328 328 329 327 327 327 327 326 327 326 326 326 327 324 323 322 320 318 317 316 314 312 311 308 306
316 315 330 327 316 320 319 320 321 320 322 320 316 314 316 315 315 315 315 316 315 314 315 315 316 316 316 316 316 313 313 313 312 313 314 315 317 320 326 331 334 330 331 339 338 336 334 330 327 328 330 332 333 335 336 335 335 335 334 333 331 329 327 326 325 325 325 323 323 324 325 326 327 327 327 326 326 326 327 327 327 326 327 327 327 324 323 323 323 323 323 322 321 319 317 315 313
317 316 329 329 317 319 318 318 320 321 321 316 315 315 315 315 315 315 315 315 315 314 315 315 315 316 315 316 316 313 313 313 312 313 313 315 316 319 323 327 333 332 329 330 327 326 327 323 328 335 331 330 335 334 335 336 335 335 334 334 332 331 329 327 326 325 326 325 324 325 325 325 326 327 326 325 326 326 327 327 327 327 327 328 327 325 324 324 324 324 324 324 323 322 320 318 316
316 322 334 329 318 321 318 318 320 322 323 316 313 315 315 316 315 315 315 315 315 314 314 315 314 315 315 315 315 313 313 313 313 313 312 314 316 318 321 321 326 331 330 327 325 325 327 326 332 342 333 331 339 335 333 335 334 334 334 334 333 332 332 329 327 326 326 326 326 326 326 325 325 326 326 326 325 325 326 327 327 327 328 328 328 325 324 325 325 325 324 324 323 321 319 318 317
321 332 333 322 318 321 318 319 316 318 322 315 313 315 315 316 315 315 315 315 315 314 314 315 315 314 315 315 315 314 313 313 313 313 313 313 314 316 319 320 321 324 325 325 324 324 327 328 330 334 332 333 336 333 333 333 333 334 334 334 333 333 333 330 329 328 326 326 325 326 326 326 325 325 325 325 325 325 325 325 326 327 327 328 328 326 325 325 325 325 325 324 322 320 318 317 317
321 332 332 324 323 319 315 316 312 314 318 314 314 315 315 316 315 315 315 315 314 315 314 313 314 314 314 315 315 314 313 313 313 313 314 313 313 314 315 318 318 318 318 318 319 320 322 324 323 323 332 339 336 332 333 332 333 333 333 333 333 333 333 332 330 329 328 327 325 325 326 326 325 325 325 324 324 325 326 326 327 327 327 328 327 325 325 326 326 326 325 324 322 320 319 319 319
315 325 330 325 321 316 313 314 313 315 315 314 314 314 315 315 315 315 315 314 313 314 315 313 314 314 314 314 315 314 313 313 314 314 315 315 315 314 314 315 316 317 317 316 316 317 317 318 319 319 328 337 335 331 331 331 332 333 333 333 332 332 332 331 330 330 329 328 327 326 325 325 325 326 325 325 325 326 328 328 328 327 327 327 327 325 325 326 326 326 325 324 323 320 319 319 320
313 321 327 319 313 315 316 314 315 315 314 315 314 314 315 315 315 315 314 316 315 314 315 315 315 315 315 314 314 314 313 313 313 314 315 316 316 315 315 315 315 316 316 317 316 316 316 316 317 318 321 325 324 325 328 329 330 332 332 332 332 331 331 330 330 330 330 330 330 328 327 325 325 326 326 326 326 327 329 329 329 328 327 327 326 325 325 325 325 325 325 324 323 321 320 320 320
315 316 317 314 311 315 316 314 315 315 314 315 314 315 316 315 315 314 314 318 318 315 315 316 315 316 316 315 314 313 313 313 313 314 314 315 316 316 316 316 316 316 315 316 316 316 317 317 316 316 317 318 319 321 324 325 329 333 330 329 330 329 329 329 330 332 331 331 331 330 329 328 328 328 327 327 328 329 330 329 329 328 327 327 327 326 325 325 325 325 325 325 324 322 320 320 320
319 316 312 313 312 315 316 315 316 315 315 315 314 315 315 314 315 315 314 316 317 315 316 316 315 315 315 315 314 314 313 313 313 313 314 315 316 317 316 316 316 315 315 314 314 315 314 315 315 316 316 317 320 321 321 323 328 331 330 330 329 330 331 330 331 332 331 331 331 330 329 330 331 329 328 329 331 331 331 330 329 329 327 327 327 326 326 326 326 326 326 325 324 323 321 320 320
321 319 313 314 314 314 316 315 316 315 316 316 315 315 314 314 315 314 313 315 315 315 316 315 315 315 315 315 314 313 313 312 313 313 314 315 316 317 316 316 314 313 313 313 313 313 313 313 314 314 314 316 320 322 321 322 327 330 333 332 328 329 332 331 331 331 331 331 330 330 330 330 331 330 329 330 332 332 331 330 329 329 327 327 327 327 327 326 326 326 325 325 325 324 322 320 320
319 319 314 315 316 315 316 315 315 315 315 315 315 314 314 315 314 313 314 315 315 315 315 315 315 315 314 315 314 313 313 312 313 313 313 314 315 315 315 314 313 313 313 314 314 314 314 314 314 313 314 314 317 322 322 323 330 337 334 328 328 331 332 331 331 331 331 331 330 330 330 330 331 331 330 331 332 331 331 330 330 329 328 329 328 327 328 327 327 326 325 325 324 324 321 320 320
316 316 314 315 315 315 316 316 316 315 315 314 314 314 314 314 313 314 315 315 315 315 315 315 315 315 315 315 314 314 313 313 313 312 313 313 313 313 313 313 313 313 313 314 314 314 314 314 314 314 313 313 315 321 324 325 330 336 331 327 331 332 330 331 330 330 331 331 331 330 330 330 331 331 331 331 331 331 331 330 330 330 329 329 328 327 328 327 327 326 326 325 324 323 321 320 320
315 314 314 315 315 315 315 316 316 316 315 315 315 315 314 313 313 315 316 315 315 315 315 315 315 315 315 315 314 314 313 313 312 312 312 312 313 312 313 313 313 313 313 314 314 314 315 314 314 314 313 313 315 320 325 326 328 331 330 330 333 331 329 330 329 332 333 333 332 330 330 330 330 331 331 331 331 331 331 330 330 329 330 329 327 327 327 327 327 326 325 325 324 322 320 320 320
314 314 315 315 313 314 315 314 315 315 315 315 314 314 313 312 313 315 315 315 315 314 315 314 314 314 314 313 313 313 312 313 312 312 312 312 312 312 313 313 313 314 313 314 314 314 314 314 314 314 313 313 316 321 325 327 327 329 330 330 332 331 331 332 330 332 333 331 331 330 331 330 330 331 330 329 328 329 330 329 328 328 328 328 328 327 327 326 326 325 325 324 322 320 320 320 319
314 315 317 319 319 318 315 313 313 314 315 314 314 314 316 315 314 315 314 314 315 314 314 314 313 313 313 313 312 312 312 312 312 311 312 312 312 312 313 313 313 314 314 314 314 314 314 313 313 313 314 313 317 323 327 328 327 328 330 328 329 330 332 332 330 330 330 329 329 330 330 329 330 330 329 328 328 329 329 328 327 327 327 328 327 326 326 325 325 324 323 322 321 320 320 319 318
316 313 315 322 323 323 315 311 313 313 314 314 314 318 324 323 315 313 314 314 314 313 313 313 313 313 312 312 312 312 312 311 311 311 311 312 312 313 313 313 313 313 314 314 314 314 313 314 314 313 314 314 319 325 329 330 328 327 328 328 327 329 330 329 327 329 331 330 329 328 327 327 328 328 327 326 326 327 327 326 327 327 327 327 327 325 325 325 324 323 322 321 320 320 320 318 315
319 313 318 324 319 327 321 309 312 314 313 313 314 318 323 323 315 313 314 314 314 313 313 313 313 313 312 312 312 312 312 311 311 311 312 312 312 313 313 313 313 313 314 313 313 313 313 314 314 314 315 315 320 326 329 329 327 326 326 326 326 327 327 327 328 329 330 329 328 327 326 326 326 326 325 324 324 325 326 327 328 328 328 327 326 325 324 323 322 322 321 320 320 319 318 314 310
325 315 324 327 316 329 328 309 310 316 314 311 314 319 319 318 314 312 313 313 314 313 313 313 312 313 312 312 312 312 312 311 311 311 312 312 312 313 312 313 313 313 313 313 313 312 313 314 315 318 318 319 322 325 327 327 325 325 326 327 328 327 326 327 328 326 327 328 326 326 326 326 325 325 325 324 323 324 326 327 327 327 326 326 325 324 323 322 321 321 321 320 319 316 312 308 306
331 320 322 329 319 323 324 313 310 312 314 312 313 319 322 319 312 311 313 312 313 312 313 313 312 313 312 312 312 311 312 311 311 312 312 312 313 312 312 313 313 313 313 312 313 312 314 314 316 320 320 322 324 324 327 327 326 327 328 329 328 327 327 328 327 326 327 327 325 325 326 326 325 324 323 322 322 323 324 325 325 325 325 325 324 323 321 321 320 320 321 318 313 309 306 305 305
329 319 319 327 323 319 322 322 313 308 313 314 313 315 319 318 311 310 312 312 312 311 312 313 313 313 312 312 312 311 311 311 312 312 312 313 312 312 312 312 313 313 312 312 312 312 314 315 317 318 318 322 323 325 329 327 326 327 327 328 326 326 329 329 327 327 326 325 324 324 325 325 324 322 321 321 322 323 324 324 323 323 323 323 323 321 320 320 320 320 317 311 306 305 305 305 304
330 323 321 324 321 318 321 323 315 311 314 315 315 314 315 315 311 310 312 312 311 312 313 312 312 312 312 312 311 312 311 311 312 312 312 312 312 312 312 312 312 312 311 311 312 312 313 315 318 320 320 322 321 323 326 324 324 325 325 327 327 326 327 327 326 326 324 323 323 323 323 323 321 320 319 319 320 321 321 321 321 321 322 322 321 321 320 320 320 315 309 305 304 304 303 303 303
331 329 328 327 323 321 322 323 317 312 314 316 315 315 314 315 313 311 311 312 311 311 312 311 311 311 311 311 311 312 311 311 312 311 312 311 311 312 311 312 311 311 311 311 312 313 312 313 318 321 322 324 323 323 322 320 322 325 325 326 326 325 324 324 325 324 322 322 323 322 321 319 318 319 318 317 319 320 320 319 320 320 320 320 320 321 321 318 313 307 304 303 302 302 302 302 303
325 326 327 325 323 323 322 324 317 310 313 319 316 315 315 314 314 312 310 310 309 309 309 309 310 310 310 311 312 312 311 311 312 311 311 311 311 311 311 311 311 311 311 311 313 314 312 313 316 317 319 321 323 323 322 321 321 321 323 325 324 322 322 324 324 322 323 323 321 320 319 318 317 318 318 317 318 319 318 319 319 320 320 321 321 319 316 311 305 303 302 301 300 301 301 301 302
320 322 322 322 323 322 319 319 317 311 313 321 318 315 314 313 313 311 309 309 309 309 309 309 310 310 311 311 311 312 311 311 311 311 311 311 311 311 311 311 310 311 311 311 313 313 314 315 315 316 319 319 319 320 321 322 323 322 322 324 323 321 322 324 324 323 323 321 319 318 318 317 315 316 317 318 318 318 318 319 320 320 319 317 316 313 308 304 302 301 300 299 299 300 300 300 300
317 319 319 320 322 321 320 320 316 312 314 321 322 317 315 314 313 311 308 308 311 311 311 312 312 311 311 311 311 311 311 311 311 311 311 311 310 311 311 311 310 311 311 311 312 312 315 317 316 317 319 319 319 321 322 322 323 323 322 322 321 320 321 323 323 322 321 319 319 318 317 316 315 315 317 318 318 317 318 318 318 317 313 309 308 306 303 301 300 299 298 298 298 298 298 299 298
318 319 319 321 321 320 324 324 316 314 315 318 321 317 314 314 315 313 310 309 310 311 312 312 312 312 311 312 312 311 312 312 311 311 311 310 310 311 311 311 311 310 311 311 311 312 315 317 318 318 318 319 321 322 321 321 321 322 322 321 321 320 320 322 322 321 319 318 318 317 316 315 315 316 316 316 316 316 316 315 314 309 305 302 302 301 300 299 299 298 297 297 297 297 297 297 296
321 320 318 321 321 320 322 323 319 321 321 318 318 319 320 320 317 315 314 311 310 311 312 312 311 311 311 311 311 311 312 312 311 311 311 311 310 311 311 310 311 310 310 311 311 313 315 316 318 319 319 319 321 321 320 321 322 322 322 320 320 321 320 320 320 319 318 317 317 315 314 315 315 315 314 314 314 313 311 309 306 302 301 300 299 299 299 298 298 297 296 296 295 295 295 295 295
323 322 320 318 321 321 319 320 320 324 328 320 317 323 330 329 322 318 318 316 315 312 310 310 312 311 310 310 310 311 311 311 312 311 311 311 310 311 311 310 311 310 310 311 311 313 314 316 317 318 320 320 320 321 320 322 323 322 321 319 320 320 319 319 318 318 317 316 315 313 314 315 315 313 311 310 309 306 304 302 300 300 299 299 298 298 298 297 297 296 296 295 295 295 294 295 294
323 325 322 318 318 319 319 320 320 325 329 319 317 326 328 325 324 323 323 323 322 317 311 310 312 312 310 311 311 311 311 310 311 311 311 311 310 311 311 311 311 309 310 311 313 315 314 316 318 316 319 322 321 320 319 320 323 321 320 319 319 319 318 317 316 316 316 314 313 312 313 313 311 308 306 303 302 301 300 299 299 299 298 298 297 297 297 297 296 296 296 295 295 295 294 294 294
326 324 322 320 318 319 319 320 321 325 324 318 321 327 325 322 323 325 326 326 326 323 319 313 311 311 311 312 311 311 311 311 310 310 310 310 311 311 311 311 311 309 310 311 313 316 314 316 319 317 318 321 321 320 319 320 321 320 320 319 318 317 316 316 315 314 313 312 312 311 310 308 304 302 301 300 299 299 299 298 298 298 298 298 297 296 297 297 296 296 296 295 295 295 294 294 294
325 319 318 321 320 321 321 321 322 322 322 322 322 322 324 325 321 320 322 323 324 323 322 318 313 312 312 312 312 311 310 310 310 310 311 311 311 311 310 311 310 309 311 311 312 316 316 315 318 319 319 320 318 317 319 320 319 319 319 318 316 315 315 314 314 313 312 311 310 308 305 302 300 299 299 299 298 298 298 298 298 297 297 297 297 296 297 296 296 296 295 295 294 294 294 293 293
317 314 318 321 321 323 324 325 324 324 324 324 324 321 324 327 324 323 321 321 325 323 321 319 314 313 314 313 313 311 310 310 310 310 310 311 311 311 310 310 310 309 311 312 311 314 316 315 316 318 319 318 316 316 317 318 318 317 316 315 314 312 313 313 312 311 310 309 307 304 301 300 299 298 298 298 298 298 298 297 297 297 297 297 296 296 296 296 295 295 294 294 293 293 293 293 292
312 318 326 326 326 327 328 327 324 325 326 325 326 323 323 327 326 325 323 323 327 324 323 323 316 313 314 314 314 312 311 310 309 309 310 310 310 310 310 310 310 309 310 311 311 312 315 317 317 318 317 316 316 317 317 316 316 316 315 314 313 312 312 311 310 309 307 305 303 301 299 299 298 298 298 298 298 297 297 297 297 297 297 296 296 296 295 295 295 294 294 294 293 293 293 292 292
316 330 331 326 329 327 327 327 325 327 328 324 322 320 321 325 325 325 323 322 323 321 323 327 321 315 314 314 314 313 312 310 309 309 309 310 309 309 309 310 309 309 310 310 311 312 314 317 317 318 318 317 317 317 317 316 316 315 314 313 312 312 310 308 307 305 304 303 301 300 299 298 298 298 298 297 297 297 297 297 296 296 296 296 295 295 295 294 294 294 294 293 293 293 292 292 291
320 330 327 325 328 327 327 327 325 326 324 319 317 318 320 322 323 323 321 320 320 317 315 318 316 313 314 314 313 313 312 311 310 309 309 309 309 309 309 310 309 309 309 310 311 312 314 316 317 317 317 316 316 316 315 314 314 313 312 311 311 310 308 306 305 303 303 301 300 300 300 299 299 298 298 298 297 297 296 296 296 296 296 296 295 295 295 294 294 294 294 293 293 292 292 292 291
320 323 324 327 327 326 328 327 325 326 323 317 314 318 321 323 323 323 321 318 317 314 313 313 313 313 314 313 312 313 312 311 310 309 310 310 309 309 309 310 309 309 309 309 310 312 314 316 317 316 315 314 314 314 313 312 311 311 311 310 309 308 306 304 303 302 302 301 300 300 300 300 299 299 298 298 297 297 297 296 296 296 296 295 295 295 294 294 294 294 293 293 293 292 292 291 291
318 322 323 325 327 328 330 328 327 328 325 318 314 319 325 327 327 322 316 312 311 312 313 313 312 312 312 311 311 311 311 310 310 309 310 310 310 310 309 310 310 309 309 309 309 312 313 315 316 315 314 313 312 312 312 311 310 310 309 308 307 306 304 303 302 301 301 301 300 299 299 299 298 298 298 298 297 297 297 296 296 296 296 295 295 295 295 294 294 294 293 293 292 291 291 290 290
319 321 322 324 325 327 327 324 322 323 324 321 317 320 324 326 324 317 312 311 311 310 310 310 311 311 310 310 310 310 310 310 309 309 310 310 309 310 309 310 310 309 310 309 309 312 312 313 314 314 314 313 311 312 312 310 309 308 307 306 305 304 303 302 301 300 300 300 299 299 298 298 298 298 298 298 297 297 297 297 296 296 296 295 295 295 295 294 294 293 293 292 291 291 290 290 289
319 318 321 321 320 322 324 322 317 318 323 323 320 322 324 323 322 318 316 317 315 313 310 309 309 310 309 309 310 310 310 310 310 309 309 309 309 309 309 309 309 309 310 309 309 311 310 310 311 313 314 312 311 311 311 310 308 306 305 305 304 303 302 301 300 300 299 299 298 298 298 298 298 298 298 298 297 297 297 296 296 296 296 295 295 295 295 294 294 293 292 292 291 290 290 289 289
321 322 321 318 318 323 326 325 323 322 324 324 322 323 324 323 324 324 320 320 322 323 317 310 307 308 308 308 310 310 310 310 309 309 309 309 309 309 309 309 309 309 310 309 309 309 308 309 311 314 314 311 310 310 310 309 306 305 304 304 303 302 301 300 300 299 299 298 298 297 297 298 298 297 297 297 297 297 297 297 296 296 296 296 295 295 295 294 294 293 292 291 291 290 290 289 289
318 321 318 319 325 326 324 325 326 326 326 326 323 321 320 320 323 324 321 322 326 326 324 320 313 307 306 308 309 309 309 309 309 309 309 309 309 309 309 309 309 309 310 310 309 308 308 309 312 314 313 310 310 311 310 307 305 304 304 303 302 301 300 299 299 299 298 298 297 297 297 297 297 297 297 296 296 297 297 297 296 296 296 295 295 295 294 294 293 292 292 291 291 290 290 289 289
313 316 315 318 324 324 323 324 325 326 327 327 325 323 322 321 322 324 322 321 323 324 328 330 318 307 307 309 309 310 310 310 309 309 309 309 309 309 309 309 309 309 309 310 309 308 308 309 311 312 312 311 311 311 309 306 304 304 303 303 302 300 299 298 298 298 298 298 297 297 297 297 297 297 296 296 296 296 296 296 296 296 295 295 295 295 294 293 293 292 292 291 291 290 289 289 289
316 318 318 318 319 319 322 322 322 325 327 327 326 325 324 324 322 322 323 324 326 325 328 327 314 307 309 310 309 311 310 310 310 309 308 309 308 308 308 308 308 309 309 309 310 309 308 308 309 310 310 311 311 310 308 305 304 303 303 302 301 299 298 298 298 298 297 297 297 297 297 297 296 296 296 295 295 295 296 296 296 295 295 295 295 294 294 293 293 292 292 291 291 290 289 289 289
317 318 319 318 318 319 322 322 321 322 323 325 326 324 324 327 323 320 323 328 326 319 317 316 310 307 309 309 310 311 311 311 310 309 308 308 308 308 308 308 308 308 309 309 310 310 308 308 309 309 310 311 311 309 307 305 304 303 302 302 300 299 298 297 297 297 297 296 296 296 296 296 296 296 295 295 295 295 295 295 295 295 295 294 294 294 293 293 292 292 292 291 290 290 289 289 288
Wind_Speed
2 1 2 3 3 4 2 2 2 3 4 2 2 1 2 2 2 2 0 2 1 3 8 9 8 8 8 9 10 10 7 2 3 2 3 6 8 8 8 8 8 10 14 14 13 12 11 11 12 12 12 10 10 9 9 10 9 8 8 8 8 9 11 12 11 11 10 10 10 9 9 9 10 10 12 12 12 13 13 13 12 12 11 11 12 12 13 14 14 14 14 12 9 5 3 2 1
0 2 4 5 3 3 2 2 2 3 5 2 2 2 2 3 0 4 3 0 4 8 17 19 15 14 12 12 11 10 9 6 4 4 6 8 9 9 9 8 9 12 14 15 13 12 11 11 11 11 11 9 9 8 8 8 8 7 7 7 7 9 11 12 11 11 11 11 10 10 9 9 8 8 10 10 10 11 11 11 11 11 11 12 13 14 15 16 16 16 16 14 12 9 6 3 1
2 3 5 4 2 2 2 3 2 2 5 2 3 3 2 1 4 6 5 5 11 14 14 12 10 8 5 6 5 5 4 4 5 6 6 8 8 9 9 9 12 13 14 17 14 11 10 10 10 10 9 8 8 8 7 6 6 6 6 6 6 8 10 11 11 11 11 11 11 10 9 8 7 7 8 8 9 9 9 9 10 11 11 12 14 16 17 18 18 17 17 16 15 13 11 7 3
3 4 4 4 3 2 3 4 2 4 3 3 3 4 2 4 7 7 4 6 12 12 6 5 6 5 5 5 4 4 4 3 3 4 5 7 8 8 8 10 14 14 14 17 16 13 11 9 8 8 8 8 8 7 6 5 5 4 4 4 5 7 8 10 10 11 11 10 11 10 9 8 7 5 5 6 7 8 8 8 9 11 12 14 15 17 18 19 19 18 18 18 17 16 15 13 9
4 4 3 5 3 1 3 3 2 5 3 5 2 5 5 6 7 6 3 4 10 11 6 6 4 5 7 6 3 2 3 3 3 3 5 6 6 7 9 12 14 14 13 17 18 14 12 9 8 8 8 8 8 7 6 5 4 4 4 4 5 6 8 9 9 10 9 9 9 8 8 7 6 5 4 4 5 6 7 8 10 11 12 14 16 17 17 18 18 18 17 17 17 16 17 16 13
4 4 2 3 3 2 3 3 2 2 4 6 4 5 5 7 8 5 5 7 9 11 8 6 6 7 6 6 5 3 4 3 3 4 6 7 6 6 9 12 13 13 12 16 19 16 13 10 8 8 9 8 7 7 6 5 5 5 5 5 5 6 8 10 9 9 8 7 7 7 7 6 5 5 4 4 5 6 7 8 9 10 11 13 15 16 16 17 18 18 17 17 16 16 16 16 15
4 3 2 5 4 3 3 3 4 2 3 5 4 5 6 9 9 6 5 6 6 7 7 8 11 9 5 4 4 3 5 4 4 6 7 7 6 6 10 12 13 13 11 13 18 17 13 11 8 8 9 8 7 7 6 5 5 5 5 6 6 6 8 10 10 9 8 7 7 6 6 6 5 5 4 4 5 6 6 7 8 9 10 11 14 15 16 17 18 18 16 15 15 15 15 15 15
3 3 2 4 4 4 4 3 3 2 1 4 4 5 9 10 10 6 3 3 2 4 9 13 10 5 2 3 1 4 6 5 6 7 8 7 6 6 10 12 12 13 11 12 18 17 14 11 9 8 8 8 8 7 6 6 5 5 5 6 6 6 8 11 10 9 8 7 7 6 6 6 6 5 4 4 5 5 5 6 7 8 9 10 12 14 15 17 18 18 15 15 14 14 14 14 15
4 3 2 5 3 3 3 2 1 2 2 3 4 4 7 9 9 5 3 2 3 5 10 12 4 1 5 5 3 6 6 6 8 8 8 8 7 7 9 11 11 12 11 12 17 18 14 11 9 9 9 8 7 6 6 6 5 5 5 5 6 6 8 11 10 9 8 7 7 6 5 5 5 5 4 4 5 4 5 5 6 8 8 9 12 13 15 17 18 17 15 14 14 13 13 13 14
3 3 3 4 3 3 3 1 0 1 3 3 3 5 6 10 8 4 5 4 4 5 7 8 3 4 9 7 6 7 7 8 10 9 9 8 8 7 9 11 11 11 11 12 16 17 13 11 9 9 10 9 8 7 7 6 5 5 5 4 5 6 8 10 10 9 7 6 6 5 5 5 4 4 4 4 4 4 4 4 6 7 7 9 11 13 14 16 17 16 14 13 14 13 12 12 12
2 3 4 5 4 3 2 3 2 3 3 4 3 5 6 10 7 4 5 6 4 3 6 5 4 10 10 6 8 8 8 9 9 10 9 9 9 8 9 11 11 10 11 12 14 15 12 10 9 10 11 10 9 8 8 7 5 4 4 5 5 6 7 8 9 8 6 6 5 4 4 4 4 4 3 4 3 3 3 4 6 7 7 9 11 12 14 15 15 14 14 13 13 13 12 12 12
2 2 4 4 3 3 4 4 4 4 5 3 2 4 5 9 8 6 6 7 5 5 6 3 6 12 7 2 8 10 9 9 9 9 9 9 10 9 10 11 10 9 10 11 12 12 12 10 10 11 12 11 10 9 9 6 5 5 4 5 5 6 6 7 7 7 6 6 5 5 4 4 3 3 4 3 3 3 3 4 5 6 7 9 10 11 13 14 14 14 14 14 14 14 13 12 12
3 2 5 4 3 4 4 4 3 2 4 3 5 3 4 9 9 10 11 8 5 5 3 3 9 11 4 2 9 12 10 9 9 9 10 10 10 10 11 12 11 12 11 10 11 10 11 11 12 12 12 13 12 11 10 8 7 6 5 5 5 6 6 6 7 7 7 6 6 5 4 4 3 3 4 3 2 2 2 3 4 5 6 8 9 11 13 13 14 15 15 15 15 15 14 13 12
3 4 5 3 2 3 5 3 2 2 3 5 4 3 5 7 8 12 13 8 3 5 3 6 12 7 3 5 8 15 12 9 11 11 12 12 12 12 13 15 14 15 13 12 14 14 12 13 16 14 14 15 14 12 12 11 9 7 6 5 5 5 6 5 6 6 6 7 6 5 5 5 4 4 4 3 1 1 1 2 3 4 5 6 8 11 12 12 14 16 16 16 15 15 14 13 12
4 4 5 4 2 2 3 2 3 5 5 4 4 4 5 5 7 11 10 6 4 8 6 7 13 4 3 7 8 17 15 10 12 12 13 13 14 14 15 17 17 17 17 19 21 20 16 14 14 13 15 16 15 14 13 12 10 9 8 7 6 6 6 6 5 6 6 7 7 6 6 6 5 5 5 3 2 1 0 1 1 2 3 5 7 10 10 10 13 14 15 15 14 14 13 13 12
4 4 5 4 2 2 3 2 3 3 5 5 6 6 6 5 7 8 5 4 6 10 8 7 13 6 5 10 9 16 16 11 12 13 14 15 16 16 16 19 18 18 18 20 20 18 14 10 12 14 16 16 15 15 14 13 11 10 9 8 8 7 7 7 6 6 7 7 7 7 6 7 6 6 6 5 4 3 2 2 1 1 2 4 6 8 8 9 10 11 12 12 13 13 13 12 11
4 4 5 3 3 4 4 4 4 4 5 5 8 9 6 3 6 6 4 5 8 10 8 7 13 10 8 11 10 16 17 12 13 14 15 16 17 17 18 18 19 20 19 19 19 16 12 11 16 18 17 16 17 18 17 15 13 13 11 10 9 8 8 8 7 7 7 8 7 8 7 8 8 8 8 6 5 5 4 2 1 1 1 4 5 5 6 7 8 9 10 11 11 12 12 12 12
3 3 4 3 4 4 5 7 7 4 3 7 10 11 7 5 6 7 4 4 7 8 8 8 10 11 10 12 11 15 18 14 14 15 16 16 17 18 19 19 19 21 21 20 20 17 16 15 18 19 17 17 21 21 19 18 16 15 13 12 10 9 9 8 7 6 7 8 8 9 9 9 8 8 8 7 6 5 5 3 3 3 1 3 2 3 5 7 7 7 9 10 11 11 11 11 12
3 3 4 3 5 4 4 7 10 4 3 9 10 10 9 6 9 10 4 3 6 5 6 8 9 11 12 12 13 16 17 15 15 15 16 16 17 18 19 20 20 20 20 20 20 18 18 18 17 18 18 19 23 23 21 21 19 17 16 15 13 11 11 9 7 7 7 8 9 9 9 9 9 9 9 8 7 6 5 4 4 3 1 2 0 1 4 6 5 5 7 9 10 9 9 10 11
2 4 3 4 6 3 4 6 11 7 4 10 9 8 8 7 10 10 6 4 5 6 8 10 11 14 14 13 15 17 17 16 16 16 17 17 17 17 18 19 19 19 19 18 18 17 17 17 16 16 20 23 24 24 22 22 21 20 19 17 15 13 12 11 10 10 10 10 10 9 9 9 10 10 9 8 8 7 6 5 5 3 1 2 3 2 4 5 5 4 5 7 7 7 7 8 8
1 4 3 5 6 2 3 6 9 9 7 12 9 6 5 7 10 9 7 5 4 12 16 15 13 14 15 16 16 18 18 17 17 17 17 17 17 17 17 17 17 18 18 18 17 17 17 17 16 16 19 22 22 22 21 22 21 21 20 18 17 15 15 14 13 12 12 12 11 10 9 9 10 10 9 9 8 8 7 6 4 3 2 3 4 4 5 6 5 4 4 5 5 5 5 5 6
3 1 2 6 7 2 4 6 6 9 10 10 9 6 5 8 9 9 10 7 6 11 15 16 15 13 13 15 16 17 17 17 17 17 17 18 18 17 16 15 15 15 16 16 17 17 17 17 17 17 18 19 19 19 21 21 19 18 19 18 18 17 17 16 15 15 14 13 12 11 10 8 9 9 9 9 10 10 9 6 4 3 3 3 3 4 6 6 4 4 4 3 3 4 4 4 5
2 1 1 6 6 2 5 9 8 10 10 10 9 7 7 8 7 9 14 14 12 11 11 13 16 15 13 15 16 16 16 16 16 16 17 17 17 17 15 14 13 13 14 15 16 16 17 17 18 18 19 19 19 19 19 18 17 17 16 16 18 18 17 17 17 18 17 14 13 12 11 10 9 9 8 9 13 15 10 6 5 5 4 4 3 4 5 5 4 4 4 5 5 5 4 4 6
3 1 1 4 5 4 7 9 9 10 9 9 8 6 8 10 7 7 14 19 17 15 14 12 14 15 15 16 16 15 15 14 15 15 16 17 18 17 16 14 13 12 13 13 14 15 15 16 17 18 19 19 20 20 18 16 16 18 19 17 17 17 17 18 19 20 18 15 15 14 13 12 11 10 9 8 12 15 11 6 7 7 6 5 5 5 6 3 2 3 5 6 6 6 5 4 6
4 2 3 3 2 3 7 9 9 8 7 7 8 7 9 11 7 6 13 18 17 17 15 12 13 15 17 17 16 15 15 14 15 16 17 18 18 18 16 15 13 12 12 12 12 13 14 14 15 16 19 20 21 21 19 17 17 21 25 21 16 17 18 18 19 19 17 15 15 14 13 12 11 10 10 8 8 11 11 9 10 8 7 9 8 9 8 3 2 2 4 6 6 5 5 4 5
1 4 3 2 1 3 7 9 9 8 7 6 7 7 7 9 6 8 15 17 16 16 14 13 13 15 17 17 17 16 15 15 16 17 18 19 19 18 16 15 14 13 12 12 13 13 13 14 15 16 19 20 22 22 21 22 22 23 24 19 17 19 18 17 17 16 15 15 14 13 13 12 12 11 10 9 7 8 11 15 16 10 8 12 12 11 10 4 3 3 4 6 6 4 3 4 7
2 3 1 1 2 3 6 9 10 9 9 8 8 6 5 6 4 7 13 15 17 16 15 15 15 16 17 17 17 16 16 17 17 19 20 20 19 18 17 15 14 13 13 13 14 14 14 14 14 16 19 21 23 23 23 24 25 24 22 18 19 18 17 19 17 15 15 13 13 13 13 13 12 11 10 10 9 7 8 13 12 8 8 10 10 11 7 4 4 4 4 4 4 3 4 6 8
2 2 2 4 4 6 7 9 12 9 6 9 9 5 4 3 4 10 12 13 17 18 17 18 17 18 18 18 18 17 18 18 19 20 21 20 19 18 17 16 14 13 13 14 14 14 14 15 14 15 18 22 23 24 24 24 23 23 21 20 20 16 17 20 18 18 17 13 13 13 13 13 12 11 11 10 9 8 8 9 7 6 7 8 9 9 5 6 5 3 2 1 2 2 4 6 9
3 4 2 6 8 7 7 8 10 9 4 6 5 3 5 4 10 14 11 13 17 18 19 20 20 20 19 19 19 19 18 19 20 21 21 20 19 18 17 15 14 13 13 13 14 14 14 14 14 14 17 21 23 23 22 23 22 20 19 20 20 17 16 15 13 16 18 17 16 13 12 13 12 10 9 9 8 9 9 9 7 6 8 8 8 7 6 6 3 0 0 0 1 3 4 6 9
1 3 2 4 7 6 5 2 5 8 4 5 7 3 7 8 15 14 10 14 18 19 21 21 22 22 21 21 21 20 20 20 20 20 20 20 19 18 16 15 14 13 13 13 13 13 13 14 14 14 16 20 22 23 21 21 21 20 19 19 18 19 18 14 12 14 16 16 14 13 14 13 12 9 8 10 10 9 9 8 8 8 10 11 7 5 4 3 1 1 0 1 3 3 5 7 7
1 1 2 2 2 5 5 0 6 6 4 8 9 2 8 8 11 10 11 16 18 20 23 23 24 24 24 24 23 22 21 20 19 20 20 20 19 18 16 15 14 13 12 12 13 13 13 14 13 14 16 19 22 23 22 21 20 19 18 19 19 20 19 17 17 17 14 13 12 13 13 12 11 8 7 8 7 7 7 8 10 12 13 10 6 5 4 2 1 1 1 3 4 4 5 5 4
3 1 3 3 1 5 9 2 9 6 2 8 8 2 8 10 9 8 13 17 20 22 23 24 25 25 26 25 25 24 22 21 21 21 21 20 19 18 16 16 14 13 12 11 12 12 13 14 13 14 16 18 20 22 23 20 20 20 19 20 21 18 18 19 20 19 17 16 15 12 11 12 10 8 8 7 6 7 8 10 12 11 10 7 5 5 4 2 1 1 3 5 4 3 2 1 2
4 0 3 3 2 3 7 3 7 4 3 5 5 2 5 6 5 5 13 19 21 21 22 24 26 27 27 27 26 25 24 25 25 24 23 22 20 18 16 16 14 12 12 11 12 12 13 14 14 17 18 18 19 21 21 19 19 21 20 22 21 18 21 22 20 18 17 16 13 9 10 13 11 10 10 7 5 7 9 10 11 9 7 6 6 6 4 2 2 3 5 4 2 0 2 3 5
3 1 2 4 3 2 3 4 4 3 3 4 5 4 8 7 3 2 12 18 21 22 24 26 27 28 28 28 28 27 27 28 28 26 24 22 20 18 17 16 14 13 12 12 12 12 13 14 15 16 18 19 20 22 21 20 21 19 19 22 21 20 21 21 18 16 14 14 11 9 10 12 11 9 7 6 7 9 10 10 9 8 7 7 7 6 4 4 4 5 4 2 3 4 5 5 6
3 3 2 3 3 3 4 5 2 4 2 4 5 5 12 13 9 8 11 16 22 25 27 26 27 29 29 30 30 30 31 31 29 25 23 22 20 19 18 16 15 13 13 13 13 13 14 16 17 15 16 17 18 23 22 22 23 20 19 21 20 20 17 15 15 13 12 11 10 9 10 10 8 6 6 7 10 10 10 9 9 9 9 9 8 6 5 5 5 3 3 6 8 7 6 6 6
6 6 5 4 4 4 5 6 5 5 3 4 8 8 12 13 12 13 14 18 23 25 25 25 27 28 30 31 33 33 34 33 29 25 23 22 21 20 19 17 15 15 15 14 14 15 14 18 20 19 20 18 18 24 22 20 21 22 23 20 18 19 18 17 15 11 11 12 10 9 8 6 5 6 6 7 9 11 9 9 10 10 10 9 7 6 5 4 4 6 8 8 8 8 8 7 6
5 5 4 4 4 5 5 5 6 3 4 6 9 9 12 13 11 13 15 16 20 23 24 27 29 29 31 34 36 37 36 34 29 25 24 22 21 21 19 18 17 17 17 15 15 16 15 17 20 21 22 20 20 23 20 19 20 21 22 18 16 17 17 17 15 12 12 13 11 8 6 6 7 9 9 9 10 11 10 9 10 9 8 7 7 6 5 6 8 8 8 8 7 6 7 8 7
3 4 3 3 3 5 7 4 4 2 4 6 7 8 12 12 11 14 12 10 17 26 27 30 33 32 34 36 38 38 36 34 30 27 26 24 24 23 21 20 19 18 17 16 17 17 16 17 18 19 20 21 21 23 23 22 21 20 19 17 16 16 15 14 13 13 14 13 10 8 8 7 8 11 12 11 10 10 10 9 9 8 6 6 6 7 8 9 10 8 6 6 7 5 5 7 6
2 3 2 3 3 4 6 4 4 1 4 5 6 7 10 11 11 14 14 15 22 32 32 35 36 35 37 39 38 38 36 36 34 31 29 27 26 25 23 22 19 18 16 16 18 18 18 19 19 19 20 21 20 22 22 20 20 20 19 17 16 16 16 14 14 15 14 11 10 10 9 8 9 12 12 12 11 10 9 8 8 8 7 7 7 9 10 9 8 8 6 4 5 5 5 6 5
3 3 3 4 3 2 4 5 4 1 2 3 5 8 8 8 9 11 21 26 25 30 35 37 37 36 38 39 38 39 39 39 38 35 32 30 28 27 25 23 20 19 18 18 18 19 20 20 21 20 20 20 20 20 20 19 21 22 20 17 15 16 17 17 16 15 13 12 13 12 11 11 12 13 13 11 10 10 9 9 9 10 11 11 9 8 9 8 7 7 7 5 5 4 4 5 4
5 5 6 5 5 6 6 4 5 3 3 3 4 8 8 7 10 10 15 17 17 27 32 32 37 37 35 34 35 39 40 40 40 38 35 32 31 30 26 23 21 20 20 19 18 20 21 21 21 22 21 20 20 22 21 20 22 23 20 16 17 19 19 18 17 15 15 15 14 13 13 13 12 12 12 12 11 11 12 12 13 13 13 12 9 7 7 8 8 7 7 7 5 4 3 4 4
5 5 9 10 8 8 5 3 5 4 5 4 4 5 7 4 8 9 7 3 10 21 22 26 35 34 31 33 35 37 37 39 39 39 37 34 33 31 26 24 23 22 21 20 19 19 20 21 21 22 23 21 21 21 19 20 22 21 18 17 20 22 20 19 18 17 17 16 15 14 15 15 13 12 13 14 14 15 15 15 14 12 11 11 9 7 6 7 7 7 7 6 5 5 4 3 3
4 5 9 11 8 5 5 1 1 1 4 3 3 0 7 6 5 8 7 5 10 13 12 20 31 30 29 34 36 36 37 38 39 38 37 35 34 31 28 26 25 23 22 21 21 20 19 21 22 20 21 23 24 21 18 22 24 21 20 19 20 20 19 19 19 18 18 17 16 17 17 16 16 16 17 18 17 16 15 14 12 10 9 9 8 6 5 6 6 5 6 5 4 5 4 2 2
4 4 5 8 7 7 6 4 4 3 3 4 3 3 5 10 5 5 8 8 10 13 10 15 23 27 30 32 34 35 37 38 40 40 39 37 35 33 30 28 26 23 23 22 23 23 21 22 24 22 22 22 22 20 19 23 24 22 22 20 18 17 17 18 19 19 18 18 19 20 19 20 20 20 20 19 18 16 14 12 11 9 8 7 7 6 5 5 5 5 5 4 4 4 4 3 4
5 3 5 6 6 5 4 5 3 1 3 4 1 4 3 10 5 1 3 6 9 14 12 12 18 23 25 28 31 33 35 37 39 40 40 38 36 34 30 28 26 24 24 24 23 25 23 22 23 25 24 21 20 20 21 23 23 21 20 18 18 18 18 18 19 20 20 21 22 23 23 24 23 22 20 18 17 15 13 12 11 9 8 7 6 5 4 5 5 4 5 4 5 4 4 5 5
4 6 7 6 5 4 5 4 3 3 3 5 6 6 3 8 3 3 1 4 9 11 10 11 15 16 17 22 26 29 32 35 36 38 38 38 37 34 29 27 26 25 25 24 23 26 26 25 24 25 25 22 22 23 24 24 24 22 21 21 20 19 19 20 21 24 25 25 26 27 27 25 24 22 20 18 16 15 13 11 10 9 7 6 6 4 4 4 4 4 4 5 5 5 6 6 6
8 7 6 7 6 5 4 2 4 2 5 6 9 11 7 6 3 4 3 4 7 8 7 9 12 12 13 15 19 24 29 33 35 36 36 36 36 33 29 28 28 26 26 25 25 27 28 29 28 28 26 25 26 28 27 26 25 24 24 23 21 20 20 23 27 29 29 29 29 28 27 25 23 22 20 18 16 14 13 11 9 8 6 6 5 4 4 4 4 4 4 5 5 6 6 6 7
7 5 4 4 4 4 4 4 4 1 6 4 6 9 9 8 6 3 5 6 5 7 6 7 10 11 11 11 14 18 24 30 33 35 36 37 37 34 31 31 30 28 28 28 28 29 29 30 30 29 28 27 27 28 27 26 26 26 26 23 21 21 24 28 30 30 30 30 29 28 27 25 23 22 20 18 16 14 12 10 9 7 6 5 4 4 4 4 4 4 5 5 5 6 6 6 7
4 4 6 3 2 2 3 3 0 3 6 3 1 3 5 9 7 6 11 12 10 10 11 12 13 15 16 13 14 16 21 27 31 35 37 39 39 37 34 34 32 31 31 30 31 32 32 31 31 30 29 29 28 28 27 28 28 27 25 22 21 23 27 30 30 29 29 29 27 26 25 23 22 21 19 17 15 13 11 9 8 7 5 4 4 3 3 3 4 4 5 5 5 6 6 6 7
6 5 6 5 2 1 3 3 2 4 5 3 0 2 3 6 4 9 15 15 14 13 17 20 20 21 22 19 17 18 21 26 30 34 38 41 41 39 36 35 34 33 32 32 33 34 34 34 34 32 31 30 30 30 29 29 27 25 24 23 24 26 29 30 29 28 27 26 25 23 21 21 20 19 18 16 14 12 11 9 8 6 5 4 3 3 2 3 3 4 4 5 5 5 5 6 6
6 4 5 5 5 4 4 4 4 4 4 4 1 2 3 2 3 7 10 13 15 15 16 19 21 22 21 19 18 19 23 26 30 34 38 41 41 40 38 36 35 34 33 34 34 35 36 36 35 33 33 32 31 30 29 28 26 25 25 25 27 28 30 30 29 27 25 24 24 22 20 20 19 17 16 15 13 12 11 9 8 6 5 4 3 2 2 2 3 3 4 4 5 5 5 5 5
3 2 4 3 5 5 3 3 5 3 2 3 2 4 4 4 6 8 9 13 15 15 15 16 19 18 16 16 17 20 24 27 31 35 38 41 41 40 38 37 36 35 35 35 35 37 38 38 36 35 34 32 30 30 29 27 27 27 28 28 29 30 31 30 28 27 25 23 23 22 21 20 19 17 16 15 14 12 11 9 8 6 5 4 2 1 1 1 2 2 3 4 4 4 4 5 5
2 3 4 4 4 5 2 2 1 3 3 4 3 5 5 3 7 8 7 10 12 12 15 18 20 17 14 15 17 20 24 27 31 34 37 40 42 41 39 38 37 36 36 36 37 38 38 38 38 37 36 32 30 30 30 28 29 30 30 30 30 31 31 29 28 27 26 25 24 23 22 21 20 18 17 16 15 13 12 10 8 7 6 5 3 2 1 0 1 1 2 3 3 4 4 5 5
5 4 6 2 2 2 2 2 2 2 4 5 3 6 5 2 6 5 3 5 10 10 10 14 17 16 16 18 17 19 23 26 30 33 36 39 41 41 39 38 37 36 36 36 36 37 38 38 38 38 36 33 31 31 30 30 31 32 32 31 31 32 31 29 28 27 26 26 26 25 24 22 21 19 18 17 16 14 13 11 10 9 7 6 5 4 3 3 2 2 2 2 3 4 5 5 6
4 4 5 4 2 1 2 2 3 2 4 5 2 4 5 6 6 4 3 6 9 10 8 9 11 13 17 20 18 19 22 25 30 33 36 39 41 41 40 38 38 37 36 35 35 37 38 39 38 37 35 33 32 31 30 31 33 33 33 32 33 33 32 30 29 28 27 27 27 26 25 23 22 21 20 18 17 16 14 13 12 10 9 8 7 6 5 5 4 3 2 3 4 5 5 6 6
4 3 2 2 2 4 4 3 3 3 2 4 3 4 4 7 7 7 11 11 9 10 9 8 10 11 15 19 19 21 23 25 29 32 35 38 40 41 39 38 37 37 37 36 37 38 39 40 39 38 35 33 32 31 31 33 35 34 34 33 34 34 33 32 30 30 29 28 27 26 25 24 23 22 20 19 18 16 15 14 13 12 11 9 8 8 7 6 5 3 3 3 5 5 6 7 7
3 4 4 3 1 2 1 1 2 4 3 2 3 6 6 4 4 8 11 10 9 9 8 8 11 11 11 15 17 21 23 25 28 31 34 37 39 40 39 37 37 36 37 37 39 39 39 39 40 38 37 36 34 32 33 35 36 36 36 35 35 34 34 33 32 31 30 29 28 27 25 25 23 22 21 20 19 17 16 15 14 13 12 11 10 10 8 7 6 4 4 4 5 6 7 8 8
6 7 8 9 7 4 2 3 2 3 3 4 3 8 9 4 4 6 8 8 7 7 6 9 14 12 9 11 14 18 22 24 26 29 32 35 37 39 39 38 37 37 38 39 40 41 40 40 40 39 38 37 35 33 34 36 36 37 37 36 36 36 35 35 34 32 31 30 29 28 27 26 25 23 22 20 20 19 18 17 16 15 15 14 13 11 10 8 7 6 5 6 6 7 7 8 8
Wind_Direction
285 191 136 136 153 151 149 143 94 18 65 85 338 48 232 229 220 176 25 318 38 22 68 100 108 102 99 101 111 92 66 100 160 115 140 164 156 164 160 160 160 157 166 169 170 166 162 155 150 142 139 136 131 132 133 131 123 116 115 127 142 148 144 136 129 122 120 115 108 99 88 76 72 71 72 74 74 78 83 85 84 81 75 67 56 44 37 32 30 29 30 32 37 44 58 71 50
234 147 144 148 161 184 201 97 90 351 54 76 292 169 249 318 208 177 186 188 137 110 91 95 93 89 91 93 92 75 51 46 84 99 127 151 155 158 159 168 164 157 166 172 172 167 164 160 156 146 139 136 131 131 128 127 122 117 111 114 131 147 150 142 132 127 127 122 114 105 95 86 79 76 77 74 73 78 81 83 82 79 73 61 47 38 31 27 26 28 30 33 38 43 52 72 116
113 157 159 162 142 150 163 60 83 76 74 118 261 245 284 322 195 199 189 139 128 120 99 93 82 69 79 82 55 61 75 61 75 91 120 153 157 154 159 165 160 157 164 170 171 168 167 165 162 149 143 140 133 130 128 126 119 115 108 106 121 141 154 151 140 132 130 123 117 110 101 93 84 78 78 75 73 76 76 77 74 69 59 47 39 34 32 29 28 30 33 37 41 44 46 49 56
120 149 168 183 150 108 84 48 119 117 112 176 236 260 257 195 202 210 184 135 143 144 119 93 70 57 79 89 63 70 122 129 97 111 140 161 162 156 155 158 159 156 161 170 172 169 170 168 168 159 151 149 142 135 132 129 124 121 112 109 121 136 153 158 148 136 130 120 114 110 104 96 89 83 80 77 74 73 71 67 59 52 45 40 37 34 32 31 31 32 35 39 44 47 48 47 46
134 135 170 206 189 96 90 72 109 103 166 179 165 254 247 202 210 217 164 120 166 176 156 116 90 94 85 77 80 98 127 143 138 142 165 177 169 152 150 157 156 151 158 172 173 171 172 171 172 171 166 163 154 144 141 140 138 137 134 125 128 139 151 159 153 140 133 120 110 103 96 88 91 99 94 83 77 70 64 58 49 44 43 41 36 33 31 30 30 32 36 39 45 50 52 53 51
147 129 102 150 131 102 112 105 123 113 207 169 150 240 239 208 211 194 119 96 144 164 158 135 132 125 88 68 76 122 139 133 152 152 163 177 172 146 147 156 151 143 149 169 175 174 176 176 175 179 177 172 164 156 153 149 145 142 141 136 139 147 153 160 157 149 142 124 112 100 90 80 91 111 110 94 82 71 63 59 52 47 46 40 33 30 29 28 29 32 35 39 44 51 55 56 56
164 158 85 107 82 51 102 123 156 171 195 173 181 206 208 209 200 169 122 102 118 147 153 142 137 121 91 88 78 135 149 145 151 150 162 173 175 149 146 154 149 141 142 165 177 176 179 180 178 185 182 177 175 167 160 155 150 143 141 137 141 151 159 162 161 160 151 132 121 111 101 94 103 115 115 99 82 77 71 64 57 53 46 36 30 28 27 27 28 29 34 38 42 49 54 55 57
163 169 98 102 43 29 92 100 169 183 159 213 242 196 193 198 186 166 126 122 118 130 139 142 138 110 126 157 159 155 146 160 160 160 169 171 174 158 151 156 149 142 142 161 176 180 183 186 187 192 189 185 183 177 171 165 155 142 140 140 142 153 162 165 168 168 155 142 134 124 115 111 116 117 114 102 84 76 68 64 59 53 44 34 31 28 26 26 26 27 32 37 40 46 53 54 55
137 147 96 91 69 40 57 39 159 221 259 245 254 221 198 185 180 162 107 99 119 134 149 159 152 82 171 170 173 160 146 162 165 166 171 167 174 170 156 158 153 145 145 161 176 180 183 193 203 203 199 196 193 191 184 172 158 143 142 145 146 152 164 171 175 170 158 149 141 131 122 122 124 121 116 104 86 69 68 66 56 51 43 36 31 28 26 25 25 26 32 39 40 44 50 53 54
116 109 115 84 81 62 42 0 241 245 255 256 244 228 198 184 186 154 125 120 133 139 159 181 192 146 159 160 160 158 150 161 168 170 174 167 170 178 165 161 160 155 152 157 170 177 184 195 206 212 210 203 201 207 198 181 164 150 147 153 151 151 164 176 179 169 158 149 144 137 131 131 127 122 118 106 86 68 74 63 51 50 41 34 31 28 26 26 26 28 35 43 44 46 49 52 54
110 64 106 80 77 113 172 199 243 254 268 312 272 220 199 198 193 143 133 130 145 131 136 162 169 148 144 157 168 166 159 161 171 174 178 173 171 178 178 174 171 167 161 158 167 174 183 194 200 210 213 206 208 214 202 185 176 168 157 159 155 152 162 177 183 176 164 157 156 152 145 140 128 128 124 108 89 80 74 54 50 45 36 34 33 30 28 29 30 34 41 46 49 50 52 52 52
164 28 81 91 128 167 187 171 205 261 306 327 211 210 195 196 189 160 143 134 147 134 138 174 176 152 130 173 178 172 166 165 175 181 188 182 176 177 186 190 180 176 172 166 174 180 184 194 203 206 208 207 208 209 201 198 201 192 177 171 161 156 161 175 186 189 182 175 173 171 165 152 137 142 133 113 94 95 69 47 47 37 36 38 36 34 33 34 36 42 48 52 53 53 54 53 52
153 142 87 102 154 146 147 149 202 293 319 258 194 192 169 180 187 173 148 129 142 137 144 194 174 161 135 198 187 182 174 171 180 189 197 194 187 180 189 198 185 183 184 174 185 202 195 197 208 204 203 204 205 207 209 218 218 205 194 184 172 164 164 173 185 192 196 192 188 184 178 172 163 160 148 131 105 104 67 49 48 37 38 38 37 37 39 42 45 50 53 54 54 55 55 54 53
130 144 98 109 109 112 138 136 213 168 237 244 198 185 169 179 189 172 147 127 159 156 146 163 167 165 166 185 195 192 179 172 187 197 201 205 200 187 191 200 196 193 189 182 188 196 195 204 210 201 201 203 202 207 213 213 213 209 198 188 182 175 169 173 184 190 200 203 201 199 195 193 189 182 175 172 158 132 72 55 53 42 36 35 37 39 44 51 55 56 56 54 53 53 53 53 52
116 120 87 107 84 80 156 165 160 155 221 222 168 182 157 158 172 171 157 140 167 158 150 164 173 188 209 198 205 195 185 174 192 205 204 208 210 198 194 199 207 206 194 190 193 194 200 210 206 203 207 203 201 206 211 209 207 208 204 197 190 185 183 179 187 192 198 205 208 210 210 210 209 203 203 206 207 216 180 118 82 53 34 41 41 40 48 57 61 61 57 54 53 52 51 50 49
103 104 74 90 116 152 175 172 121 130 240 209 162 164 134 140 157 166 182 168 159 159 166 179 185 218 237 209 209 195 189 185 197 209 207 210 214 209 204 201 207 214 208 206 209 209 213 206 190 206 213 199 205 212 208 210 212 214 217 209 197 198 197 182 185 195 198 203 208 214 220 222 221 220 222 222 224 231 219 209 150 78 35 53 45 40 52 61 64 63 57 53 52 52 52 50 47
92 81 66 81 150 185 186 174 165 167 234 218 175 170 141 156 166 166 196 185 171 168 184 188 193 222 230 207 204 194 194 198 203 209 210 210 213 214 215 211 206 211 217 220 224 221 212 193 183 200 210 194 202 211 207 212 216 217 220 212 207 205 197 186 185 195 202 203 208 217 221 224 226 228 230 231 233 239 243 247 241 251 38 64 48 40 62 71 66 59 54 52 54 56 56 55 52
85 94 90 126 172 191 181 178 192 172 198 199 184 182 166 171 180 171 168 172 173 172 190 192 199 215 207 198 197 194 197 205 209 210 211 211 213 215 217 218 216 216 219 222 227 224 210 202 195 200 208 202 207 211 207 210 214 214 213 209 210 206 199 198 193 196 207 208 212 218 223 226 227 231 235 237 239 250 262 271 263 261 50 83 42 35 83 88 74 56 48 48 54 58 61 62 59
83 102 96 182 200 200 198 192 195 184 192 184 177 189 183 182 179 173 186 194 174 171 191 190 198 202 196 197 196 196 200 206 211 212 212 214 215 216 218 220 223 224 225 226 227 226 218 214 213 204 197 197 210 215 210 211 213 214 212 209 212 208 203 203 204 211 215 218 219 221 226 229 232 236 238 238 239 245 247 255 254 250 80 107 73 49 108 103 85 64 51 50 55 61 66 68 64
76 95 93 228 213 214 244 206 197 209 205 170 169 194 196 195 180 179 200 195 193 212 203 194 204 206 200 198 194 197 204 208 213 216 216 217 217 216 219 221 225 228 229 233 231 232 229 226 226 212 198 199 213 220 216 215 215 216 213 212 216 214 215 218 221 223 220 222 224 225 229 232 236 237 238 237 235 234 231 230 225 231 285 132 128 118 124 113 99 74 57 55 57 64 67 69 63
69 107 145 212 181 167 222 193 198 212 193 170 168 178 198 199 186 192 184 160 240 238 223 220 226 221 211 203 198 200 206 213 216 221 221 220 220 218 220 222 225 228 230 233 234 237 238 239 237 228 218 216 224 225 219 220 219 221 220 216 218 217 222 227 226 224 221 220 220 225 232 235 238 241 242 240 235 232 229 220 214 246 266 147 134 145 140 119 96 63 51 55 56 61 63 63 54
77 59 213 174 153 147 184 169 175 182 172 168 165 166 195 194 197 210 190 183 236 240 237 236 239 239 227 215 207 205 208 215 218 223 227 226 225 221 219 220 222 226 230 232 234 237 237 240 241 239 235 231 231 225 223 224 215 220 229 225 222 219 221 223 219 219 220 217 218 227 234 230 230 236 238 244 244 232 226 217 217 245 227 161 155 163 146 123 87 55 38 31 32 37 38 40 36
102 318 235 165 175 207 176 167 160 166 171 176 180 193 201 189 214 229 210 220 237 246 255 246 240 237 231 221 215 214 213 216 219 223 229 231 230 227 222 221 223 224 226 228 229 233 235 237 239 240 240 237 233 225 226 222 206 213 223 218 217 216 217 217 215 218 221 217 219 231 234 221 221 230 230 239 236 218 207 208 210 210 194 184 189 174 149 126 79 44 16 1 1 2 1 14 17
110 153 194 168 206 235 183 174 171 177 188 198 200 208 208 199 215 233 224 234 243 250 260 253 241 228 221 219 215 216 216 218 221 224 229 231 232 231 231 229 227 224 220 221 224 228 232 235 237 238 239 237 231 226 222 212 206 209 207 209 216 216 216 215 215 218 221 221 223 230 231 224 223 233 234 236 231 209 195 200 205 201 198 205 208 192 175 154 40 13 2 352 349 337 333 1 5
75 152 197 159 202 225 188 184 190 199 213 216 212 211 217 213 216 241 236 238 241 245 252 250 237 221 215 214 214 215 216 220 224 228 230 230 231 232 233 232 227 226 225 227 230 233 235 236 237 236 236 235 230 224 215 201 201 205 207 215 215 214 219 218 219 221 222 226 228 228 230 232 228 229 232 235 235 210 205 214 201 193 204 209 206 198 189 182 325 327 341 337 335 323 324 354 354
66 144 164 150 177 210 198 208 215 222 230 219 215 224 230 218 227 260 245 237 238 237 238 237 228 220 214 212 215 218 223 229 232 233 232 229 230 231 231 231 230 233 238 242 245 246 246 243 237 232 231 232 228 220 211 201 200 205 213 218 211 215 221 218 224 227 225 225 228 231 230 233 229 226 228 227 232 219 222 221 202 196 215 209 203 196 189 199 291 290 301 317 322 319 332 359 355
131 116 106 180 221 243 225 227 230 232 237 229 221 237 246 210 204 255 239 228 229 227 225 225 223 221 219 218 220 226 233 237 238 234 230 228 226 229 231 231 236 239 243 250 253 255 255 251 240 229 226 227 225 218 213 208 205 209 214 209 211 223 225 219 220 218 213 214 225 235 231 231 230 224 223 222 230 230 226 221 210 218 232 220 209 194 195 248 263 252 256 294 312 323 351 358 353
101 66 315 293 311 290 251 234 232 224 237 241 224 245 267 180 200 244 237 224 223 222 220 220 221 222 223 226 230 234 237 237 237 233 228 227 226 228 231 233 239 242 247 251 254 257 255 253 243 229 223 223 222 216 214 215 211 210 212 207 209 219 215 208 207 211 219 225 226 228 225 230 230 223 225 227 235 236 231 238 241 232 225 225 218 210 252 275 247 236 238 279 322 347 352 347 345
59 59 324 303 344 322 254 237 229 205 218 233 195 271 276 199 225 239 230 217 216 217 219 220 221 223 226 231 236 238 239 237 233 230 225 224 225 228 232 236 240 243 246 250 252 253 252 250 241 229 222 219 217 212 214 221 218 212 213 213 208 206 203 201 208 217 222 223 218 220 231 236 232 227 227 225 227 229 229 242 251 240 222 213 218 241 277 263 233 334 18 279 334 338 335 336 340
32 59 40 318 353 329 262 236 207 186 205 190 152 263 271 237 239 234 216 211 208 210 216 220 221 224 228 231 237 239 240 239 232 226 224 225 227 230 234 236 239 242 244 247 250 250 248 243 234 224 218 215 209 205 210 217 218 212 212 216 211 206 214 226 229 211 203 207 208 225 245 241 231 226 220 219 221 223 224 230 235 234 218 203 208 235 236 222 210 72 115 283 310 318 325 334 338
0 5 18 11 353 282 290 88 157 162 212 182 150 233 265 264 258 237 221 213 208 213 216 219 222 224 228 231 235 239 240 239 232 225 225 227 229 231 234 235 236 238 240 244 247 247 241 233 227 217 211 210 203 200 208 215 218 214 213 220 215 211 222 226 218 212 218 231 234 242 244 233 227 218 212 219 213 207 211 209 206 202 197 194 196 191 170 172 214 184 250 291 303 308 320 335 349
27 342 302 341 185 262 309 262 171 163 198 176 156 229 267 276 280 247 221 210 210 219 221 221 224 225 228 231 233 237 238 235 229 226 227 230 231 231 233 235 236 236 239 243 244 241 232 223 213 205 204 203 200 201 207 216 219 215 214 214 208 208 215 213 213 221 232 241 247 244 222 215 220 199 191 205 196 190 200 204 201 193 191 191 180 169 162 175 214 276 288 293 300 308 327 12 84
1 88 243 272 191 267 321 285 200 192 133 175 198 243 271 284 306 237 206 206 211 218 225 225 227 229 229 232 234 235 235 232 229 227 229 231 232 233 232 236 239 239 242 240 240 236 224 216 201 197 200 197 199 202 202 209 209 205 206 205 208 216 212 209 217 222 225 234 240 229 206 206 209 195 194 204 195 193 199 203 199 192 198 199 175 169 183 215 281 289 282 287 301 23 112 116 110
310 348 240 242 204 214 297 310 259 200 140 203 227 242 251 262 321 211 199 206 211 218 229 230 229 231 231 232 234 235 234 232 231 229 230 232 232 232 232 235 238 239 239 234 235 231 217 209 203 198 198 196 199 198 196 204 202 201 208 206 211 217 204 204 216 216 222 233 230 222 210 201 198 200 204 194 179 182 190 200 200 192 193 194 186 187 210 236 256 264 258 203 134 120 124 120 110
199 193 209 250 238 217 246 286 255 162 157 224 210 242 255 262 275 252 221 211 214 223 232 234 234 233 232 233 234 236 236 234 233 230 231 233 231 231 231 233 234 233 232 229 226 223 212 202 198 194 194 198 201 198 201 207 206 210 215 206 207 213 211 217 220 215 223 227 218 210 201 196 195 196 196 186 183 184 187 195 196 191 189 193 199 202 213 228 234 218 166 140 133 130 129 120 111
165 175 166 195 228 251 233 251 246 176 174 230 215 232 249 258 262 252 238 219 219 230 236 237 238 235 233 233 236 236 236 236 233 229 230 231 230 230 231 230 229 226 225 223 217 216 213 200 194 193 193 197 201 200 204 206 206 209 208 205 208 220 237 239 222 216 221 213 203 193 187 197 184 173 178 170 172 175 174 176 180 187 189 190 195 199 211 214 183 154 137 129 131 136 135 127 120
129 134 158 195 212 267 248 251 277 185 171 242 226 228 246 252 258 259 245 222 222 233 238 239 237 235 234 234 236 236 236 237 233 228 228 228 228 228 229 226 222 222 221 216 209 210 211 197 195 199 195 195 199 200 203 204 206 208 211 215 213 219 233 224 207 205 204 191 183 180 184 197 176 171 174 158 161 169 173 180 182 186 185 182 190 195 193 168 148 142 134 128 132 137 134 132 128
117 132 189 247 214 256 254 247 289 169 167 260 250 241 255 252 256 262 244 206 224 232 231 237 237 234 235 235 236 235 234 234 230 226 225 223 224 225 225 224 220 222 222 214 207 206 205 195 195 199 195 195 201 204 206 207 208 206 210 215 211 217 218 199 191 191 186 177 176 184 192 192 174 172 172 163 167 171 172 177 175 174 177 185 193 176 157 149 142 137 129 126 131 131 126 129 131
128 128 158 257 242 272 281 281 315 132 176 264 284 265 259 254 255 257 238 219 234 239 236 240 240 233 233 234 233 232 231 231 228 225 223 221 222 222 222 224 220 219 221 215 209 203 198 196 195 194 194 197 197 200 202 203 206 203 204 208 212 220 214 197 191 185 179 175 180 187 189 181 163 163 164 162 170 172 170 177 179 174 166 161 163 152 143 140 134 125 116 103 111 122 121 127 136
186 164 159 237 244 259 277 290 328 11 214 265 296 284 270 258 256 254 244 237 240 247 247 248 245 239 238 238 235 233 230 229 226 223 221 219 220 221 220 222 219 215 215 213 208 201 196 197 196 194 196 197 194 196 199 204 210 206 200 203 207 207 202 193 187 183 182 181 186 188 183 176 167 167 169 169 175 177 178 184 179 163 147 142 145 144 137 132 125 118 111 95 88 101 114 129 147
236 200 189 220 232 217 228 292 330 338 330 349 337 298 275 241 239 246 249 243 242 249 249 249 249 245 243 241 238 236 234 231 228 224 221 219 220 221 219 219 218 217 215 212 206 200 199 198 196 199 199 196 199 201 203 212 212 201 192 192 193 191 188 184 185 189 186 185 193 191 178 176 176 176 175 173 175 173 169 166 160 152 146 142 141 141 135 129 122 113 106 102 98 95 102 130 146
268 227 203 215 223 225 241 334 1 354 325 342 20 306 280 244 233 247 265 263 244 247 245 245 248 247 240 237 236 235 234 233 231 228 224 221 221 221 218 217 218 218 213 208 204 199 200 198 195 201 200 198 203 201 203 208 201 196 201 203 194 189 185 184 190 197 196 199 204 189 177 179 181 176 166 161 162 159 155 154 152 150 146 139 136 137 128 116 110 103 98 98 103 93 84 103 127
263 244 207 213 213 225 248 214 71 289 261 293 52 247 278 281 231 233 240 244 253 252 244 244 248 246 240 237 237 234 232 230 227 226 224 221 221 221 219 218 218 219 210 203 199 196 199 199 196 199 200 202 202 196 200 202 195 200 212 208 201 200 201 198 199 207 213 214 199 182 178 176 169 164 158 154 155 154 154 152 148 147 141 134 130 123 109 97 87 82 80 75 65 64 64 52 59
236 250 182 187 193 209 220 180 191 236 260 315 45 110 278 283 260 223 209 219 259 263 255 252 248 245 241 239 237 234 233 231 226 223 220 220 222 223 222 220 219 216 208 202 197 194 197 197 197 199 196 198 198 194 198 199 194 195 196 197 204 214 220 218 215 214 211 200 183 175 174 166 159 159 156 155 155 155 155 150 145 144 140 132 120 108 94 84 73 61 60 49 36 38 41 19 12
246 223 131 148 165 179 166 146 186 297 3 299 238 126 256 275 278 26 191 209 250 260 256 258 254 248 245 243 239 236 235 233 229 226 222 219 221 222 221 219 218 211 205 204 198 193 195 194 197 199 191 191 199 200 199 195 193 196 201 213 219 218 222 225 219 204 188 179 174 170 166 161 159 160 160 160 158 155 154 151 147 144 138 126 112 106 92 80 71 60 54 47 39 32 25 21 17
200 132 93 79 79 81 88 116 125 55 318 246 200 162 233 269 239 109 90 217 236 254 255 257 263 261 255 250 245 238 234 232 229 228 224 220 220 220 218 216 215 209 203 205 199 194 196 194 193 195 192 196 204 204 201 200 203 210 220 228 227 221 219 214 200 183 174 172 171 167 165 164 163 164 164 163 161 158 158 154 148 143 134 124 116 111 95 82 76 67 60 53 44 31 26 26 20
134 108 65 50 35 36 49 49 80 55 278 236 192 183 192 269 268 166 198 219 219 238 256 268 273 268 259 256 248 239 234 231 227 224 220 218 218 217 215 213 212 207 201 202 199 195 196 197 196 196 198 202 204 200 200 204 209 216 223 229 230 224 211 196 183 173 170 171 171 168 167 168 167 167 167 165 164 163 160 154 147 144 136 130 123 108 90 79 71 59 48 42 34 24 22 20 14
121 87 83 75 351 8 21 356 50 191 260 245 201 188 186 234 258 223 245 263 241 225 236 261 272 272 266 258 249 240 235 231 225 220 216 213 212 212 212 210 208 206 202 200 199 196 196 198 198 197 196 198 200 200 200 207 214 220 226 229 226 215 199 187 178 172 170 171 172 172 171 171 171 170 170 169 166 163 160 155 149 147 141 130 114 95 83 66 50 39 29 26 19 13 12 9 5
120 98 115 115 322 357 349 313 70 226 255 287 234 166 204 240 253 260 261 263 251 231 232 243 254 268 273 269 259 244 233 229 223 218 214 211 210 210 210 209 207 207 205 202 199 197 198 199 198 199 199 198 201 206 210 217 221 224 225 219 209 201 193 185 178 173 172 173 176 176 175 175 175 174 174 173 170 164 160 158 153 149 142 126 110 92 74 53 37 27 19 12 6 3 359 355 352
165 146 146 153 156 193 268 263 263 260 268 306 272 167 249 274 271 247 247 256 262 255 252 254 257 264 271 273 266 249 234 228 223 218 214 212 211 210 211 210 210 209 206 203 200 198 200 201 200 203 207 207 209 213 217 220 220 219 216 205 195 191 189 185 180 178 176 177 180 181 180 180 180 179 178 175 174 169 165 162 159 154 145 132 119 95 66 44 29 17 10 2 356 351 346 344 340
184 155 143 160 160 173 210 213 227 257 286 304 280 191 206 221 254 239 243 268 279 271 261 261 263 265 270 270 260 244 232 225 220 217 215 213 212 211 211 212 213 212 208 205 202 200 201 203 203 204 207 209 212 215 216 215 213 210 203 193 188 189 188 185 183 182 182 181 183 184 184 183 183 184 182 180 179 176 174 170 165 162 155 148 134 104 61 34 24 13 4 352 346 339 336 336 331
221 116 121 183 182 170 194 200 181 179 294 291 226 224 218 211 264 268 262 272 275 271 267 263 263 266 268 261 249 238 229 223 219 217 215 214 211 211 212 213 214 214 211 207 203 202 203 204 205 207 209 212 214 213 213 210 207 202 193 186 186 189 189 188 185 186 186 186 186 187 187 186 188 189 188 186 185 181 180 179 175 172 170 168 161 143 75 25 12 354 346 336 331 328 328 329 323
165 136 174 200 167 151 178 267 101 103 273 268 195 245 290 307 280 278 271 271 272 272 267 261 260 261 259 252 243 236 230 223 220 218 216 214 211 212 213 214 215 215 213 210 206 206 206 205 205 207 209 212 213 211 210 207 202 196 189 185 187 190 191 191 189 189 189 188 188 190 192 193 193 194 194 192 191 188 185 185 185 185 184 186 189 188 202 248 289 298 305 309 317 320 318 320 317
127 181 198 154 78 99 119 259 330 55 262 270 205 240 277 282 273 305 353 290 278 270 263 263 261 252 246 246 241 237 232 225 222 219 217 215 213 213 213 214 216 217 217 214 209 209 209 206 205 206 209 209 208 209 208 204 199 194 189 187 189 192 194 195 194 194 193 192 192 194 197 199 198 197 198 196 195 195 193 192 192 193 195 196 200 201 206 218 226 239 265 296 310 312 311 309 304
121 176 179 125 130 200 125 180 229 200 251 279 275 258 249 205 223 268 267 260 267 271 275 275 262 242 239 243 238 233 231 225 222 219 217 216 214 214 214 214 216 217 218 215 211 210 209 207 206 207 210 209 207 208 207 202 198 194 191 189 191 194 196 197 197 198 198 197 198 199 200 201 201 200 200 199 199 199 198 197 195 197 201 200 202 204 206 210 213 225 257 292 302 303 301 296 292
46 84 143 105 141 177 165 169 173 164 231 280 307 300 253 219 206 202 220 232 238 254 270 272 263 250 243 244 239 233 231 229 226 222 219 218 216 215 215 215 217 217 216 215 212 211 210 208 207 207 209 210 209 209 205 202 199 196 194 193 194 196 198 200 201 201 203 202 203 204 204 204 205 204 203 201 201 201 200 199 198 199 203 204 206 206 205 208 212 225 252 283 294 293 290 286 285
152 154 174 189 132 103 153 205 130 131 167 223 279 285 268 244 208 191 209 224 219 227 245 265 275 273 257 251 246 240 236 234 231 226 221 219 216 215 215 216 218 218 216 215 214 214 213 209 207 207 207 208 209 208 205 203 201 198 197 196 197 198 200 203 204 205 206 206 206 208 208 208 208 207 206 204 204 203 201 202 203 203 205 208 208 206 208 212 217 227 248 272 282 284 284 283 281
182 189 191 185 170 137 157 236 197 137 183 181 193 269 269 236 189 198 210 216 213 217 226 260 278 282 275 265 255 248 243 237 235 230 224 221 218 216 215 215 217 217 216 216 215 215 215 212 208 207 207 208 210 209 206 204 204 203 200 199 200 201 203 205 207 207 208 209 210 210 211 212 211 209 208 207 207 206 204 204 205 206 207 206 206 208 213 217 221 231 248 262 272 280 282 280 278